Location: New York
(40.7127°N, 74.0060°W)
Time: 14:46:51
(UTC-04:00)

AO-85 - Visible Passes

Search period start: 22 April 2024 00:00
Search period end: 02 May 2024 00:00
Orbit: 516 x 753 km, 64.8° (Epoch: 04 January)

Date Brightness Start Highest point End Pass type
(mag) Time Alt. Az. Time Alt. Az. Time Alt. Az.
22 Apr ? 00:10:30 11° NNE 00:10:30 11° NNE 00:10:43 10° NNE visible
22 Apr ? 01:47:41 12° NNW 01:47:41 12° NNW 01:48:58 10° N visible
23 Apr ? 00:28:11 16° N 00:28:11 16° N 00:29:19 10° NNE visible
24 Apr ? 00:45:46 17° NNW 00:45:46 17° NNW 00:47:35 10° N visible
24 Apr ? 23:26:03 16° NNE 23:26:03 16° NNE 23:27:05 10° NNE visible
25 Apr ? 01:03:12 12° NW 01:03:30 12° NW 01:05:07 10° NNW visible
25 Apr ? 23:43:18 24° N 23:43:18 24° N 23:45:38 10° NNE visible
26 Apr ? 22:23:09 19° NE 22:23:09 19° NE 22:24:35 10° NE visible
27 Apr ? 00:00:16 18° NW 00:00:35 19° NW 00:03:50 10° N visible
27 Apr ? 22:39:40 53° N 22:39:40 53° N 22:43:24 10° NNE visible
28 Apr ? 00:18:42 10° NW 00:19:54 11° NW 00:21:06 10° NNW visible
28 Apr ? 05:24:37 10° N 05:27:48 17° NE 05:31:01 10° E visible
28 Apr ? 21:18:06 27° ESE 21:18:06 27° ESE 21:21:40 10° NE visible
28 Apr ? 22:55:05 16° WSW 22:57:48 31° NW 23:01:53 10° NNE visible
29 Apr ? 21:32:18 10° SSW 21:36:26 63° ESE 21:40:53 10° NE visible
29 Apr ? 23:13:58 10° W 23:16:55 17° NW 23:20:00 10° N visible
30 Apr ? 04:23:43 10° NNE 04:24:47 11° NE 04:25:53 10° NE visible
30 Apr ? 21:50:59 10° SW 21:55:09 59° NW 21:59:38 10° NNE visible
30 Apr ? 23:35:38 10° NW 23:36:13 10° NNW 23:36:50 10° NNW visible
01 May ? 04:40:44 10° N 04:44:06 18° NE 04:47:31 10° E visible
01 May ? 20:30:27 10° S 20:34:06 30° ESE 20:38:00 10° NE visible
01 May ? 22:10:18 10° WSW 22:14:03 29° NW 22:18:04 10° NNE visible
